K5RG-3 Weather Reports


time (UTC)temp
C
wind
direction
speed
KPH
gust
KPH
rain 1hr
cm
rain 24hr
cm
rain mn
cm
humidity
%
barometer
mb
20260831081625 26 206 0.0 0.0 0.00 0.00 0.00 89 1013.1
20260831080051 26 206 0.0 0.0 0.00 0.00 0.00 88 1013.3
20260831074549 26 206 0.0 0.0 0.00 0.00 0.00 88 1013.3
20260831073122 27 206 0.0 0.0 0.00 0.00 0.00 88 1013.3
20260831071546 27 206 0.0 0.0 0.00 0.00 0.00 88 1013.2
20260831070046 27 206 0.0 0.0 0.00 0.00 0.00 88 1013.3
20260831064552 27 206 0.0 0.0 0.00 0.00 0.00 88 1013.4
20260831063043 27 163 0.0 0.0 0.00 0.00 0.00 87 1013.5
20260831061542 27 163 0.0 0.0 0.00 0.00 0.00 87 1013.6
20260831060057 27 163 0.0 0.0 0.00 0.00 0.00 87 1013.6
20260831054541 27 163 0.0 0.0 0.00 0.00 0.00 86 1013.5
20260831053038 27 163 0.0 0.0 0.00 0.00 0.00 86 1013.5
20260831051541 27 90 0.0 0.0 0.00 0.00 0.00 85 1013.4
20260831050044 27 89 0.0 0.0 0.00 0.00 0.00 85 1013.4
20260831044536 27 89 0.0 0.0 0.00 0.00 0.00 84 1013.4
20260831043036 27 89 0.0 0.0 0.00 0.00 0.00 83 1013.3
20260831041545 27 89 0.0 0.0 0.00 0.00 0.00 83 1013.3
20260831040047 28 89 0.0 0.0 0.00 0.00 0.00 82 1013.2
20260831034538 28 89 0.0 0.0 0.00 0.00 0.00 81 1013.1
20260831033033 28 89 0.0 0.0 0.00 0.00 0.00 80 1013.0
20260831031533 28 175 0.0 0.0 0.00 0.00 0.00 80 1012.9
20260831030044 28 175 0.0 0.0 0.00 0.00 0.00 80 1012.9
20260831024533 28 156 0.0 1.6 0.00 0.00 0.00 79 1012.7
20260831023033 29 224 0.0 1.6 0.00 0.00 0.00 78 1012.5
20260831021534 29 224 0.0 1.6 0.00 0.00 0.00 78 1012.3
20260831020031 30 224 0.0 1.6 0.00 0.00 0.00 77 1012.1
20260831014535 30 187 0.0 3.2 0.00 0.00 0.00 76 1012.0
20260831013032 30 192 0.0 8.0 0.00 0.00 0.00 75 1012.1
20260831011537 30 158 0.0 0.0 0.00 0.00 0.00 74 1011.9
20260831010029 30 158 0.0 3.2 0.00 0.00 0.00 73 1011.9
20260831004529 31 182 0.0 1.6 0.00 0.00 0.00 71 1011.9
20260831003027 31 129 0.0 3.2 0.00 0.00 0.00 70 1011.8
20260831001533 32 156 0.0 3.2 0.00 0.00 0.00 69 1011.8
20260831000028 32 165 0.0 3.2 0.00 0.00 0.00 67 1011.9
20260830234527 32 151 0.0 3.2 0.00 0.00 0.00 65 1011.8
20260830233033 33 165 0.0 4.8 0.00 0.00 0.00 64 1011.7
20260830231526 33 138 1.6 3.2 0.00 0.00 0.00 63 1011.7
20260830230027 33 129 0.0 3.2 0.00 0.00 0.00 61 1011.8
20260830224525 33 162 1.6 4.8 0.00 0.00 0.00 61 1011.8
20260830223026 33 112 0.0 4.8 0.00 0.00 0.00 60 1011.7
20260830221525 34 151 1.6 6.4 0.00 0.00 0.00 59 1011.6
20260830220039 34 156 0.0 4.8 0.00 0.00 0.00 63 1011.6
20260830214522 34 131 1.6 11.3 0.00 0.00 0.00 65 1011.7
20260830213025 34 123 1.6 4.8 0.00 0.00 0.00 64 1011.8
20260830211522 34 122 0.0 8.0 0.00 0.00 0.00 66 1011.9
20260830210021 34 95 3.2 14.5 0.00 0.00 0.00 65 1012.1
20260830204511 34 104 4.8 14.5 0.00 0.00 0.00 65 1012.3
20260830203007 34 140 0.0 12.9 0.00 0.00 0.00 65 1012.4
20260830201503 34 107 4.8 12.9 0.00 0.00 0.00 66 1012.6
20260830200103 34 99 4.8 24.1 0.00 0.00 0.00 67 1012.7
20260830194555 33 71 8.0 20.9 0.00 0.00 0.00 67 1013.0
20260830193052 33 65 6.4 22.5 0.00 0.00 0.00 69 1013.2
20260830191617 33 123 1.6 11.3 0.00 0.00 0.00 69 1013.4
20260830190054 33 101 11.3 19.3 0.00 0.00 0.00 70 1013.7
20260830184540 33 91 0.0 17.7 0.00 0.00 0.00 70 1013.9
20260830183036 34 90 0.0 3.2 0.00 0.00 0.00 66 1014.0
20260830181533 34 96 0.0 3.2 0.00 0.00 0.00 60 1014.3
20260830180037 33 326 0.0 4.8 0.00 0.00 0.00 59 1014.5
20260830174531 33 116 0.0 9.7 0.00 0.00 0.00 63 1014.6
20260830173023 33 44 0.0 4.8 0.00 0.00 0.00 64 1015.0
20260830171521 33 138 0.0 3.2 0.00 0.00 0.00 66 1015.1
20260830170018 32 264 1.6 4.8 0.00 0.00 0.00 67 1015.1
20260830164514 32 178 0.0 4.8 0.00 0.00 0.00 67 1015.1
20260830163025 32 187 0.0 3.2 0.00 0.00 0.00 70 1015.2
20260830161509 32 89 0.0 4.8 0.00 0.00 0.00 71 1015.3
20260830160008 31 17 0.0 4.8 0.00 0.00 0.00 73 1015.2
20260830154507 31 87 0.0 3.2 0.00 0.00 0.00 73 1015.2
20260830153003 31 283 3.2 6.4 0.00 0.00 0.00 74 1015.3
20260830151502 30 182 0.0 6.4 0.00 0.00 0.00 76 1015.3
20260830150105 31 201 0.0 6.4 0.00 0.00 0.00 76 1015.4
20260830144608 30 204 0.0 4.8 0.00 0.00 0.00 79 1015.3
20260830143054 30 285 0.0 6.4 0.00 0.00 0.00 80 1015.4
20260830141551 29 40 0.0 4.8 0.00 0.00 0.00 82 1015.3
20260830140051 28 6 0.0 0.0 0.00 0.00 0.00 84 1015.2
20260830134542 28 265 0.0 0.0 0.00 0.00 0.00 86 1015.0
20260830133044 27 294 0.0 0.0 0.00 0.00 0.00 89 1014.9
20260830131550 26 294 0.0 0.0 0.00 0.00 0.00 91 1014.8
20260830130040 26 294 0.0 0.0 0.00 0.00 0.00 92 1014.7
20260830124532 25 294 0.0 0.0 0.00 0.00 0.00 93 1014.6
20260830123031 25 286 0.0 0.0 0.00 0.00 0.00 93 1014.3
20260830121527 25 286 0.0 0.0 0.00 0.00 0.00 92 1014.4
20260830120029 25 286 0.0 0.0 0.00 0.00 0.00 92 1014.4
20260830114527 25 286 0.0 0.0 0.00 0.00 0.00 92 1014.3
20260830113025 25 286 0.0 0.0 0.00 0.00 0.00 92 1014.3
20260830111529 25 286 0.0 0.0 0.00 0.00 0.00 92 1014.2
20260830110021 25 286 0.0 0.0 0.00 0.00 0.00 92 1014.0
20260830104525 25 286 0.0 0.0 0.00 0.00 0.00 92 1014.0
20260830103021 25 286 0.0 0.0 0.00 0.00 0.00 91 1014.0
20260830101522 25 286 0.0 0.0 0.00 0.00 0.00 91 1014.0
20260830100018 25 286 0.0 0.0 0.00 0.00 0.00 91 1013.8
20260830094522 25 286 0.0 0.0 0.00 0.00 0.00 91 1013.8
20260830093028 25 286 0.0 0.0 0.00 0.00 0.00 91 1013.7
20260830091521 25 286 0.0 0.0 0.00 0.00 0.00 91 1013.8
20260830090015 25 289 0.0 0.0 0.00 0.00 0.00 91 1013.6
20260830084516 25 175 0.0 0.0 0.00 0.00 0.00 91 1013.7
20260830083013 25 175 0.0 0.0 0.00 0.00 0.00 90 1013.7